Weather in Myrivka

Ukraine / Kyiv Region     49°55′53″N   30°37′18″E
temp.,
°C
wind,
m/s
gust,
m/s
humid.,
%
clouds,
%
prec.,
mm/h
press.,
hPa
HPBL,
m
21 january, fri
fri2123:00−1sw61290100 0.3 1006535
02:00−3w61285100 0.3 1006428
05:00−4w7138358 0.0 1005721
08:00−4wsw8158499 0.1 1006883
11:00−3w91577100 0.0 10061059
14:00−2w91582100 0.1 10051145
17:00−3wsw9168694 0.1 1005938
20:00−2w81583100 0.1 1006895
22 january, sat
sat2223:00−3wsw71591100 0.1 1006785
02:00−3w6139499 0.4 1006663
05:00−3wnw51193100 0.4 1007760
08:00−4w61088100 0.6 1008554
11:00−3w698395 0.0 1010670
14:00−3w5883100 0.1 1010775
17:00−4wsw489496 0.1 1011358
20:00−5nw489013 0.6 1014290
23 january, sun
sun2323:00−7wnw379697 0.1 1016212
02:00−6wnw259672 0.2 1017182
05:00−8nw0098100 0.1 101811
08:00−7nne249770 0.1 102092
11:00−6nne4584100 0.1 1022632
14:00−6nne5683100 0.2 1024672
17:00−7nne588996 0.1 1027405
20:00−8nne499589 0.1 1029309
24 january, mon
mon2423:00−9nne499799 0.1 1030260
02:00−10n4997100 0.1 1031229
05:00−9n51295100 0.0 1031335
08:00−9n6149398 0.0 1032371
11:00−7n71485100 0.0 1031492
14:00−6n71292100 0.3 1030574
17:00−7n6129499 0.4 1031495
20:00−7n51095100 0.6 1032385
25 january, tue
tue2523:00−8n5109698 0.1 1031295
02:00−10nnw3698100 0.1 1031169
05:00−10nnw379787 0.0 1030175
08:00−11nnw499655 0.1 1029194
11:00−8nnw358514 0.0 1028268
14:00−6nw23785 0.0 1026331
17:00−10wsw22935 0.0 102531
20:00−10wsw36915 0.0 102476